Waco, TX

1:30 AM CDT on August 23, 2017 (GMT -0500)
Waco Regional

Weather History for KACT - August, 2013

Change the Weather History Date:

Wednesday, August 28, 2013

  Actual Average Record
Temperature  
Mean Temperature 84 °F 84 °F  
Max Temperature 97 °F 95 °F 109 °F (2011)
Min Temperature 70 °F 72 °F 53 °F (1992)
Degree Days  
Heating Degree Days 0 0  
Month to date heating degree days 0 0  
Since 1 June heating degree days 0 0  
Since 1 July heating degree days 0 0  
Cooling Degree Days 19 19  
Month to date cooling degree days 573 573  
Year to date cooling degree days 2140 2139  
Since 1 June cooling degree days 1723 1687  
Growing Degree Days 34 (Base 50)    
Moisture  
Dew Point 67 °F    
Average Humidity 63    
Maximum Humidity 93    
Minimum Humidity 33    
Precipitation  
Precipitation 0.00 in 0.09 in 2.02 in (2001)
Month to date precipitation 0.22 1.79  
Year to date precipitation 21.43 21.90  
Sea Level Pressure  
Sea Level Pressure 30.03 in    
Wind  
Wind Speed 6 mph (South)    
Max Wind Speed 13 mph    
Max Gust Speed 17 mph    
Visibility 10 miles    
Events      
T = Trace of Precipitation, MM = Missing Value Source: NWS Daily Summary

Daily Weather History Graph

Daily Weather History Graph

Search for Another Location

Airport or City:

Trip Planner

Search our weather history database for the weather conditions in past years. The results will help you decide how hot, cold, wet, or windy it might be!

Date:

Astronomy

Aug. 28, 2013 Rise Set
Actual Time 7:02 AM CDT 7:57 PM CDT
Civil Twilight 6:37 AM CDT 8:22 PM CDT
Nautical Twilight 6:07 AM CDT 8:51 PM CDT
Astronomical Twilight 5:37 AM CDT 9:21 PM CDT
Moon 12:20 AM CDT (8/28) 2:25 PM CDT (8/28)
Length of Visible Light 13h 44m
Length of Day
12h 54m
Waning Gibbous, 47% of the Moon is Illuminated
Aug 28
Waning Gibbous
Sep 5
New
Sep 12
First Quarter
Sep 19
Full
Sep 26
Last Quarter

Hourly Weather History & Observations

Time (CDT) Temp. Heat Index Dew Point Humidity Pressure Visibility Wind Dir Wind Speed Gust Speed Precip Events Conditions
12:51 AM 71.1 °F - 66.9 °F 87% 30.03 in 10.0 mi SW 4.6 mph - N/A   Clear
1:51 AM 73.0 °F - 66.9 °F 81% 30.02 in 10.0 mi SSW 5.8 mph - N/A   Clear
2:51 AM 72.0 °F - 69.1 °F 91% 30.02 in 10.0 mi SSW 6.9 mph - N/A   Clear
3:51 AM 72.0 °F - 70.0 °F 93% 30.03 in 10.0 mi SSW 6.9 mph - N/A   Clear
4:51 AM 71.1 °F - 69.1 °F 93% 30.03 in 10.0 mi SSW 5.8 mph - N/A   Clear
5:51 AM 71.1 °F - 70.0 °F 96% 30.05 in 10.0 mi SW 3.5 mph - N/A   Clear
6:51 AM 71.1 °F - 69.1 °F 93% 30.06 in 10.0 mi Calm Calm - N/A   Clear
7:51 AM 71.1 °F - 69.1 °F 93% 30.08 in 10.0 mi East 3.5 mph - N/A   Clear
8:51 AM 77.0 °F - 73.0 °F 88% 30.09 in 10.0 mi SSW 5.8 mph - N/A   Clear
9:51 AM 82.0 °F 86.7 °F 72.0 °F 71% 30.10 in 10.0 mi Variable 4.6 mph - N/A   Clear
10:51 AM 87.1 °F 91.3 °F 69.1 °F 55% 30.10 in 10.0 mi South 6.9 mph - N/A   Clear
11:51 AM 90.0 °F 93.6 °F 68.0 °F 48% 30.10 in 10.0 mi SSE 9.2 mph - N/A   Clear
12:51 PM 93.0 °F 96.4 °F 66.9 °F 42% 30.08 in 10.0 mi South 9.2 mph - N/A   Clear
1:51 PM 93.9 °F 96.1 °F 64.9 °F 38% 30.06 in 10.0 mi Variable 5.8 mph - N/A   Clear
2:51 PM 93.9 °F 95.6 °F 64.0 °F 37% 30.03 in 10.0 mi SSE 5.8 mph - N/A   Clear
3:51 PM 95.0 °F 95.6 °F 62.1 °F 33% 30.01 in 10.0 mi SSE 3.5 mph - N/A   Clear
4:51 PM 95.0 °F 96.0 °F 63.0 °F 34% 29.99 in 10.0 mi SSE 8.1 mph - N/A   Clear
5:51 PM 96.1 °F 97.3 °F 63.0 °F 33% 29.98 in 10.0 mi South 8.1 mph - N/A   Clear
6:51 PM 93.9 °F 95.2 °F 63.0 °F 36% 29.97 in 10.0 mi South 4.6 mph - N/A   Clear
7:51 PM 89.1 °F 91.0 °F 64.9 °F 45% 29.98 in 10.0 mi South 5.8 mph - N/A   Clear
8:51 PM 88.0 °F 90.7 °F 66.9 °F 49% 29.99 in 10.0 mi SSE 5.8 mph - N/A   Clear
9:51 PM 84.0 °F 86.5 °F 66.9 °F 56% 30.00 in 10.0 mi SSE 4.6 mph - N/A   Clear
10:51 PM 82.9 °F 86.5 °F 69.1 °F 63% 30.01 in 10.0 mi South 5.8 mph - N/A   Clear
11:51 PM 81.0 °F 83.8 °F 68.0 °F 65% 30.00 in 10.0 mi South 5.8 mph - N/A   Clear